Regional Weather Roundup
Issued by NWS

Current Version | Previous Version | Text Only | Print | Product List | Glossary Off
Versions: 1 2 3 4 5 6 7 8 9 10 11 12 13 14 15 16 17 18 19 20 21 22 23 24 25 26 27 28 29 30 31 32 33 34 35 36 37 38 39 40 41 42 43 44 45 46 47 48 49 50

610
ASUS44 KJAN 232310
RWRMS

MISSISSIPPI HOURLY WEATHER ROUNDUP
NATIONAL WEATHER SERVICE JACKSON MS
600 PM CDT TUE MAY 23 2017

NOTE: "FAIR: INDICATES FEW OR NO CLOUDS BELOW 12,000 FEET WITH NO
SIGNIFICANT WEATHER AND/OR OBSTRUCTIONS TO VISIBILITY.

MSZ001>002-007>008-010>013-018>021-025>028-034>036-240000-
NORTHWEST MISSISSIPPI

CITY           SKY/WX    TMP DP  RH WIND       PRES   REMARKS
CLARKSDALE       N/A     79  59  50 MISG      29.69F
CLEVELAND      FAIR      77  62  58 W6        29.69S
GREENWOOD      CLOUDY    77  63  61 CALM      29.69F
GREENVILLE     PTSUNNY   74  60  61 SW6       29.70F
OLIVE BRANCH   PTSUNNY  N/A N/A N/A W6        29.66F
OXFORD         FAIR      75  55  50 NW8       29.70F
TUNICA         PTCLDY    72  55  56 W8        29.69F
WINONA         FAIR      74  63  67 W6        29.69F
$$

MSZ003>006-009-014>017-022>024-029>033-037>039-240000-
NORTHEAST MISSISSIPPI

CITY           SKY/WX    TMP DP  RH WIND       PRES   REMARKS
COLUMBUS AFB   CLOUDY    75  68  79 W8        29.66F
CORINTH        MOCLDY    77  57  50 NW8       29.66F
GOLDN TRIANGLE PTSUNNY   75  63  64 CALM      29.63F
STARKVILLE     MOCLDY    73  64  73 NW7       29.69F
TUPELO         CLOUDY    77  59  53 W3        29.66F
$$

MSZ040-058-240000-
CENTRAL MISSISSIPPI

CITY           SKY/WX    TMP DP  RH WIND       PRES   REMARKS
JACKSON INTL   PTSUNNY   75  64  68 W8        29.71F
JACKSON HAWKNS PTSUNNY   74  63  68 NW8       29.72F
MADISON        MOCLDY    72  63  73 W5        29.71F
MERIDIAN KEY   MOSUNNY   77  68  73 NW9       29.68F
MERIDIAN NAS   PTSUNNY   77  65  66 NW9       29.67F
VICKSBURG VKS  CLEAR     75  63  64 NW7       29.70F
$$

MSZ059>079-240000-
SOUTH MISSISSIPPI

CITY           SKY/WX    TMP DP  RH WIND       PRES   REMARKS
COLUMBIA       MOCLDY    77  66  69 NW12      29.74S
HATTIESBURG    PTSUNNY   78  67  68 NW5       29.70F
LAUREL         FAIR      78  66  68 NW8       29.70S
MCCOMB         MOSUNNY   78  63  59 NW9       29.72F
NATCHEZ        MOSUNNY   76  63  64 VRB5      29.74F
PINE BELT      NOT AVBL
$$

MSZ080>082-240000-
COASTAL MISSISSIPPI

CITY           SKY/WX    TMP DP  RH WIND       PRES   REMARKS
BAY ST LOUIS   MOSUNNY   82  70  65 W7        29.70S
BILOXI         SUNNY     80  71  73 SW18G24   29.68F
PASCAGOULA     MOSUNNY   81  69  67 SW9G20    29.69S
GULFPORT       SUNNY     81  71  71 SW9       29.68F
$$

LAZ007>009-015>016-023>026-240000-
NORTHEAST LOUISIANA

CITY           SKY/WX    TMP DP  RH WIND       PRES   REMARKS
BASTROP        CLOUDY    74  64  69 S3        29.73S
TALLULAH/VBURG MOSUNNY   76  63  64 W5        29.73F
VIDALIA        FAIR      77  62  61 CALM      29.72F
$$




USA.gov is the U.S. government's official web portal to all federal, state and local government web resources and services.